Location: Unspecified
(0.0000°N, 0.0000°E)
Time: 16:22:49
(UTC+00:00)

Courier 1B - Pass Details

Date: 28 November 2019
Orbit: 963 x 1209 km, 28.3° (Epoch: 12 December)

Event Time Altitude Azimuth Distance (km) Brightness Sun altitude
Rises 01:48:51 0° 291° (WNW) 4,099 - -53.6°
Reaches altitude 10° 01:54:26 10° 322° (NW) 3,108 - -52.5°
Maximum altitude 01:56:44 11° 340° (NNW) 2,983 - -52.0°
Drops below altitude 10° 01:59:01 10° 358° (N) 3,072 - -51.6°
Sets 02:04:27 0° 30° (NNE) 3,974 - -50.5°
